Flag for Germany Weather past 2 weeks in Herrenberg, Baden-Württemberg, Germany

Now
66 °F

Sunny.


Feels Like: 66 °F
Forecast: 40 / 68 °F
Wind: 2 mph from North

Location: Stuttgart-Echterdingen

Current Time: Aug 21, 2014 at 4:05:12 PM

Latest Report: Aug 21, 2014 at 3:20 PM


Visibility: 10 mi

Pressure: 30.04 "Hg

Humidity: 40%

Dew point: 41 °F

Location of HerrenbergLocation

Historic Weather in Herrenberg — Graph

°F

Herrenberg temperature yesterday

Maximum temperature yesterday: 64 °F (at 1:50 PM)
Minimum temperature yesterday: 52 °F (at 2:20 AM)
Average temperature yesterday: 57 °F

Past Weeks' High & Low Weather Summary

 TemperatureHumidityPressure
High82 °F (Aug 10, 5:20 PM)100% (Aug 7, 3:20 AM)30.18 "Hg (Aug 7, 3:20 AM)
Low48 °F (Aug 21, 6:50 AM)40% (Aug 19, 5:50 PM)29.68 "Hg (Aug 13, 1:20 PM)
Average63 °F73%29.96 "Hg
* Reported Aug 6 2:20 PM — Aug 21 2:50 PM, Herrenberg, Weather by CustomWeather, © 2014

Note: Actual official high and low records may vary slightly from our data, if they occured in-between our weather recording intervals... More about our weather records

Advertising

Herrenberg weather history for previous 24 hours

 ConditionsComfort  
Time TempWeatherWind HumidityBarometerVisibility
2:50 PM
Aug 21
64 °FSunny.7 mph52%30.04 "Hg10 mi
2:20 PM64 °FPassing clouds.7 mph49%30.07 "HgN/A
1:50 PM64 °FSunny.5 mph49%30.07 "Hg10 mi
1:20 PM63 °FSunny.8 mph52%30.07 "Hg10 mi
12:50 PM63 °FSunny.5 mph49%30.07 "Hg10 mi
12:20 PM63 °FScattered clouds.3 mph49%30.07 "HgN/A
11:50 AM63 °FScattered clouds.3 mph45%30.07 "HgN/A
11:20 AM61 °FScattered clouds.7 mph55%30.07 "HgN/A
10:50 AM61 °FPassing clouds.6 mph55%30.07 "HgN/A
10:20 AM61 °FPassing clouds.3 mph63%30.07 "HgN/A
9:50 AM59 °FPassing clouds.3 mph72%30.07 "HgN/A
9:20 AM57 °FSunny.3 mph72%30.07 "Hg10 mi
8:50 AM55 °FSunny.3 mph77%30.07 "Hg10 mi
8:20 AM54 °FSunny.1 mph82%30.07 "Hg10 mi
7:50 AM52 °FSunny.1 mph88%30.07 "Hg10 mi
7:20 AM50 °FClear.2 mph88%30.07 "Hg10 mi
6:50 AM48 °FClear.1 mph87%30.07 "Hg10 mi
6:20 AM50 °FClear.3 mph88%30.07 "Hg10 mi
5:50 AM50 °FPassing clouds.6 mph88%30.07 "HgN/A
5:20 AM50 °FPassing clouds.5 mph88%30.07 "HgN/A
4:50 AM52 °FPassing clouds.2 mph88%30.07 "HgN/A
4:20 AM52 °FPassing clouds.5 mph88%30.07 "HgN/A
3:50 AM54 °FPartly cloudy.3 mph82%30.07 "HgN/A
3:20 AM54 °FPartly cloudy.2 mph88%30.07 "HgN/A
2:50 AM54 °FPartly cloudy.3 mph88%30.07 "HgN/A
2:20 AM54 °FLight rain. Clear.2 mph82%30.04 "HgN/A
1:50 AM55 °FLight rain. Clear.7 mph82%30.07 "HgN/A
1:20 AM55 °FLight rain. Clear.5 mph77%30.04 "HgN/A
12:50 AM55 °FClear.6 mph77%30.04 "Hg10 mi
12:20 AM55 °FLight rain. Clear.3 mph77%30.04 "HgN/A
11:50 PM
Aug 20
55 °FClear.6 mph77%30.04 "Hg10 mi
11:20 PM57 °FClear.3 mph72%30.04 "Hg10 mi
10:50 PM57 °FClear.2 mph72%30.04 "Hg10 mi
10:20 PM57 °FClear.2 mph72%30.04 "Hg10 mi
9:50 PM57 °FClear.1 mph72%30.04 "Hg10 mi
9:20 PM57 °FSunny.2 mph72%30.04 "Hg10 mi
8:50 PM59 °FSunny.1 mph63%30.01 "Hg10 mi
8:20 PM59 °FSunny.3 mph63%30.01 "Hg10 mi
7:50 PM59 °FSunny.5 mph59%30.01 "Hg10 mi
7:20 PM59 °FSunny.6 mph59%30.01 "Hg10 mi
6:50 PM61 °FSunny.7 mph55%30.01 "Hg10 mi
6:20 PM61 °FSunny.9 mph55%30.01 "Hg10 mi
5:50 PM61 °FSunny.9 mph55%30.01 "Hg10 mi
5:20 PM61 °FSunny.10 mph59%30.01 "Hg10 mi
4:50 PM63 °FSunny.10 mph52%30.01 "Hg10 mi
4:20 PM63 °FSunny.7 mph52%30.01 "Hg10 mi
Weather by CustomWeather, © 2014

See weather overviewHow to use our weather pages